#datetime,building,power
2023-04-22T00:00:00,thn,4.73
2023-04-22T00:01:00,thn,4.67
2023-04-22T00:02:00,thn,4.69
2023-04-22T00:03:00,thn,4.69
2023-04-22T00:04:00,thn,4.67
2023-04-22T00:05:00,thn,4.62
2023-04-22T00:06:00,thn,6.23
2023-04-22T00:07:00,thn,6.23
2023-04-22T00:08:00,thn,4.65
2023-04-22T00:09:00,thn,4.60
2023-04-22T00:10:00,thn,4.68
2023-04-22T00:11:00,thn,4.73
2023-04-22T00:12:00,thn,4.78
2023-04-22T00:13:00,thn,4.74
2023-04-22T00:14:00,thn,4.79
2023-04-22T00:15:00,thn,4.85
2023-04-22T00:16:00,thn,4.77
2023-04-22T00:17:00,thn,4.82
2023-04-22T00:18:00,thn,4.75
2023-04-22T00:19:00,thn,4.77
2023-04-22T00:20:00,thn,4.81
2023-04-22T00:21:00,thn,4.95
2023-04-22T00:22:00,thn,4.94
2023-04-22T00:23:00,thn,4.93
2023-04-22T00:24:00,thn,5.11
2023-04-22T00:25:00,thn,9.48
2023-04-22T00:26:00,thn,9.58
2023-04-22T00:27:00,thn,9.38
2023-04-22T00:28:00,thn,9.45
2023-04-22T00:29:00,thn,9.97
2023-04-22T00:30:00,thn,11.48
2023-04-22T00:31:00,thn,11.43
2023-04-22T00:32:00,thn,11.47
2023-04-22T00:33:00,thn,11.43
2023-04-22T00:34:00,thn,11.36
2023-04-22T00:35:00,thn,12.83
2023-04-22T00:36:00,thn,12.90
2023-04-22T00:37:00,thn,11.45
2023-04-22T00:38:00,thn,11.46
2023-04-22T00:39:00,thn,11.19
2023-04-22T00:40:00,thn,11.26
2023-04-22T00:41:00,thn,11.25
2023-04-22T00:42:00,thn,11.29
2023-04-22T00:43:00,thn,13.00
2023-04-22T00:44:00,thn,11.46
2023-04-22T00:45:00,thn,11.26
2023-04-22T00:46:00,thn,11.29
2023-04-22T00:47:00,thn,11.38
2023-04-22T00:48:00,thn,12.41
2023-04-22T00:49:00,thn,12.46
2023-04-22T00:50:00,thn,11.28
2023-04-22T00:51:00,thn,11.40
2023-04-22T00:52:00,thn,11.39
2023-04-22T00:53:00,thn,11.32
2023-04-22T00:54:00,thn,12.74
2023-04-22T00:55:00,thn,9.21
2023-04-22T00:56:00,thn,11.44
2023-04-22T00:57:00,thn,11.50
2023-04-22T00:58:00,thn,10.22
2023-04-22T00:59:00,thn,11.33
2023-04-22T01:00:00,thn,11.40
2023-04-22T01:01:00,thn,12.70
2023-04-22T01:02:00,thn,11.88
2023-04-22T01:03:00,thn,10.84
2023-04-22T01:04:00,thn,9.36
2023-04-22T01:05:00,thn,9.18
2023-04-22T01:06:00,thn,9.29
2023-04-22T01:07:00,thn,9.34
2023-04-22T01:08:00,thn,9.33
2023-04-22T01:09:00,thn,9.22
2023-04-22T01:10:00,thn,9.30
2023-04-22T01:11:00,thn,9.27
2023-04-22T01:12:00,thn,9.30
2023-04-22T01:13:00,thn,9.40
2023-04-22T01:14:00,thn,9.56
2023-04-22T01:15:00,thn,9.67
2023-04-22T01:16:00,thn,9.67
2023-04-22T01:17:00,thn,9.63
2023-04-22T01:18:00,thn,9.39
2023-04-22T01:19:00,thn,9.22
2023-04-22T01:20:00,thn,9.48
2023-04-22T01:21:00,thn,5.33
2023-04-22T01:22:00,thn,5.18
2023-04-22T01:23:00,thn,5.13
2023-04-22T01:24:00,thn,5.25
2023-04-22T01:25:00,thn,4.74
2023-04-22T01:26:00,thn,4.62
2023-04-22T01:27:00,thn,4.53
2023-04-22T01:28:00,thn,4.57
2023-04-22T01:29:00,thn,4.49
2023-04-22T01:30:00,thn,4.43
2023-04-22T01:31:00,thn,4.52
2023-04-22T01:32:00,thn,4.44
2023-04-22T01:33:00,thn,4.43
2023-04-22T01:34:00,thn,5.19
2023-04-22T01:35:00,thn,4.57
2023-04-22T01:36:00,thn,4.57
2023-04-22T01:37:00,thn,4.69
2023-04-22T01:38:00,thn,4.65
2023-04-22T01:39:00,thn,4.58
2023-04-22T01:40:00,thn,4.49
2023-04-22T01:41:00,thn,4.56
2023-04-22T01:42:00,thn,5.74
2023-04-22T01:43:00,thn,7.31
2023-04-22T01:44:00,thn,7.27
2023-04-22T01:45:00,thn,6.82
2023-04-22T01:46:00,thn,4.73
2023-04-22T01:47:00,thn,4.71
2023-04-22T01:48:00,thn,6.30
2023-04-22T01:49:00,thn,6.29
2023-04-22T01:50:00,thn,4.79
2023-04-22T01:51:00,thn,5.26
2023-04-22T01:52:00,thn,6.44
2023-04-22T01:53:00,thn,6.49
2023-04-22T01:54:00,thn,4.79
2023-04-22T01:55:00,thn,4.81
2023-04-22T01:56:00,thn,4.85
2023-04-22T01:57:00,thn,4.80
2023-04-22T01:58:00,thn,5.97
2023-04-22T01:59:00,thn,6.12
2023-04-22T02:00:00,thn,7.06
2023-04-22T02:01:00,thn,7.06
2023-04-22T02:02:00,thn,7.02
2023-04-22T02:03:00,thn,7.06
2023-04-22T02:04:00,thn,8.30
2023-04-22T02:05:00,thn,8.37
2023-04-22T02:06:00,thn,8.24
2023-04-22T02:07:00,thn,8.54
2023-04-22T02:08:00,thn,8.31
2023-04-22T02:09:00,thn,8.35
2023-04-22T02:10:00,thn,8.40
2023-04-22T02:11:00,thn,8.40
2023-04-22T02:12:00,thn,8.36
2023-04-22T02:13:00,thn,8.32
2023-04-22T02:14:00,thn,8.31
2023-04-22T02:15:00,thn,6.42
2023-04-22T02:16:00,thn,6.61
2023-04-22T02:17:00,thn,6.62
2023-04-22T02:18:00,thn,6.27
2023-04-22T02:19:00,thn,6.28
2023-04-22T02:20:00,thn,6.12
2023-04-22T02:21:00,thn,5.96
2023-04-22T02:22:00,thn,6.14
2023-04-22T02:23:00,thn,6.53
2023-04-22T02:24:00,thn,6.72
2023-04-22T02:25:00,thn,6.68
2023-04-22T02:26:00,thn,6.60
2023-04-22T02:27:00,thn,6.61
2023-04-22T02:28:00,thn,6.07
2023-04-22T02:29:00,thn,6.06
2023-04-22T02:30:00,thn,4.24
2023-04-22T02:31:00,thn,4.23
2023-04-22T02:32:00,thn,4.21
2023-04-22T02:33:00,thn,5.87
2023-04-22T02:34:00,thn,6.38
2023-04-22T02:35:00,thn,6.38
2023-04-22T02:36:00,thn,6.49
2023-04-22T02:37:00,thn,4.89
2023-04-22T02:38:00,thn,4.84
2023-04-22T02:39:00,thn,4.58
2023-04-22T02:40:00,thn,4.58
2023-04-22T02:41:00,thn,4.40
2023-04-22T02:42:00,thn,4.35
2023-04-22T02:43:00,thn,4.36
2023-04-22T02:44:00,thn,4.30
2023-04-22T02:45:00,thn,4.52
2023-04-22T02:46:00,thn,4.75
2023-04-22T02:47:00,thn,4.75
2023-04-22T02:48:00,thn,4.76
2023-04-22T02:49:00,thn,4.70
2023-04-22T02:50:00,thn,4.69
2023-04-22T02:51:00,thn,4.16
2023-04-22T02:52:00,thn,4.27
2023-04-22T02:53:00,thn,4.09
2023-04-22T02:54:00,thn,4.02
2023-04-22T02:55:00,thn,4.02
2023-04-22T02:56:00,thn,4.20
2023-04-22T02:57:00,thn,4.19
2023-04-22T02:58:00,thn,4.53
2023-04-22T02:59:00,thn,4.97
2023-04-22T03:00:00,thn,5.04
2023-04-22T03:01:00,thn,4.81
2023-04-22T03:02:00,thn,4.84
2023-04-22T03:03:00,thn,4.58
2023-04-22T03:04:00,thn,4.02
2023-04-22T03:05:00,thn,3.98
2023-04-22T03:06:00,thn,3.98
2023-04-22T03:07:00,thn,3.96
2023-04-22T03:08:00,thn,3.95
2023-04-22T03:09:00,thn,3.95
2023-04-22T03:10:00,thn,4.08
2023-04-22T03:11:00,thn,4.05
2023-04-22T03:12:00,thn,4.04
2023-04-22T03:13:00,thn,4.04
2023-04-22T03:14:00,thn,4.04
2023-04-22T03:15:00,thn,3.97
2023-04-22T03:16:00,thn,3.98
2023-04-22T03:17:00,thn,3.98
2023-04-22T03:18:00,thn,4.06
2023-04-22T03:19:00,thn,4.34
2023-04-22T03:20:00,thn,4.94
2023-04-22T03:21:00,thn,4.73
2023-04-22T03:22:00,thn,4.75
2023-04-22T03:23:00,thn,4.75
2023-04-22T03:24:00,thn,4.06
2023-04-22T03:25:00,thn,4.04
2023-04-22T03:26:00,thn,4.11
2023-04-22T03:27:00,thn,4.08
2023-04-22T03:28:00,thn,3.95
2023-04-22T03:29:00,thn,3.95
2023-04-22T03:30:00,thn,3.95
2023-04-22T03:31:00,thn,3.94
2023-04-22T03:32:00,thn,3.91
2023-04-22T03:33:00,thn,3.94
2023-04-22T03:34:00,thn,3.93
2023-04-22T03:35:00,thn,3.92
2023-04-22T03:36:00,thn,3.89
2023-04-22T03:37:00,thn,3.85
2023-04-22T03:38:00,thn,3.82
2023-04-22T03:39:00,thn,3.84
2023-04-22T03:40:00,thn,3.83
2023-04-22T03:41:00,thn,3.83
2023-04-22T03:42:00,thn,3.90
2023-04-22T03:43:00,thn,3.88
2023-04-22T03:44:00,thn,3.87
2023-04-22T03:45:00,thn,3.92
2023-04-22T03:46:00,thn,3.92
2023-04-22T03:47:00,thn,3.84
2023-04-22T03:48:00,thn,3.79
2023-04-22T03:49:00,thn,3.79
2023-04-22T03:50:00,thn,3.85
2023-04-22T03:51:00,thn,3.97
2023-04-22T03:52:00,thn,4.19
2023-04-22T03:53:00,thn,4.11
2023-04-22T03:54:00,thn,4.05
2023-04-22T03:55:00,thn,4.08
2023-04-22T03:56:00,thn,4.06
2023-04-22T03:57:00,thn,3.87
2023-04-22T03:58:00,thn,3.84
2023-04-22T03:59:00,thn,3.90
2023-04-22T04:00:00,thn,4.11
2023-04-22T04:01:00,thn,3.90
2023-04-22T04:02:00,thn,3.92
2023-04-22T04:03:00,thn,3.89
2023-04-22T04:04:00,thn,3.85
2023-04-22T04:05:00,thn,3.84
2023-04-22T04:06:00,thn,3.84
2023-04-22T04:07:00,thn,4.01
2023-04-22T04:08:00,thn,4.02
2023-04-22T04:09:00,thn,3.99
2023-04-22T04:10:00,thn,3.92
2023-04-22T04:11:00,thn,3.91
2023-04-22T04:12:00,thn,3.92
2023-04-22T04:13:00,thn,3.84
2023-04-22T04:14:00,thn,3.97
2023-04-22T04:15:00,thn,4.03
2023-04-22T04:16:00,thn,3.98
2023-04-22T04:17:00,thn,3.97
2023-04-22T04:18:00,thn,3.96
2023-04-22T04:19:00,thn,3.95
2023-04-22T04:20:00,thn,3.91
2023-04-22T04:21:00,thn,3.91
2023-04-22T04:22:00,thn,3.91
2023-04-22T04:23:00,thn,3.99
2023-04-22T04:24:00,thn,3.97
2023-04-22T04:25:00,thn,3.97
2023-04-22T04:26:00,thn,3.95
2023-04-22T04:27:00,thn,3.88
2023-04-22T04:28:00,thn,4.10
2023-04-22T04:29:00,thn,4.14
2023-04-22T04:30:00,thn,4.13
2023-04-22T04:31:00,thn,4.20
2023-04-22T04:32:00,thn,4.17
2023-04-22T04:33:00,thn,3.98
2023-04-22T04:34:00,thn,3.99
2023-04-22T04:35:00,thn,4.00
2023-04-22T04:36:00,thn,3.83
2023-04-22T04:37:00,thn,3.95
2023-04-22T04:38:00,thn,3.92
2023-04-22T04:39:00,thn,3.92
2023-04-22T04:40:00,thn,4.59
2023-04-22T04:41:00,thn,4.58
2023-04-22T04:42:00,thn,4.36
2023-04-22T04:43:00,thn,4.37
2023-04-22T04:44:00,thn,4.30
2023-04-22T04:45:00,thn,4.32
2023-04-22T04:46:00,thn,4.68
2023-04-22T04:47:00,thn,4.36
2023-04-22T04:48:00,thn,4.37
2023-04-22T04:49:00,thn,4.37
2023-04-22T04:50:00,thn,4.35
2023-04-22T04:51:00,thn,4.40
2023-04-22T04:52:00,thn,4.00
2023-04-22T04:53:00,thn,3.98
2023-04-22T04:54:00,thn,4.17
2023-04-22T04:55:00,thn,3.98
2023-04-22T04:56:00,thn,3.97
2023-04-22T04:57:00,thn,4.05
2023-04-22T04:58:00,thn,4.18
2023-04-22T04:59:00,thn,4.22
2023-04-22T05:00:00,thn,4.16
2023-04-22T05:01:00,thn,4.09
2023-04-22T05:02:00,thn,4.15
2023-04-22T05:03:00,thn,4.14
2023-04-22T05:04:00,thn,4.13
2023-04-22T05:05:00,thn,4.19
2023-04-22T05:06:00,thn,4.18
2023-04-22T05:07:00,thn,4.08
2023-04-22T05:08:00,thn,4.23
2023-04-22T05:09:00,thn,4.05
2023-04-22T05:10:00,thn,3.97
2023-04-22T05:11:00,thn,3.96
2023-04-22T05:12:00,thn,3.92
2023-04-22T05:13:00,thn,3.92
2023-04-22T05:14:00,thn,3.98
2023-04-22T05:15:00,thn,3.98
2023-04-22T05:16:00,thn,3.97
2023-04-22T05:17:00,thn,3.90
2023-04-22T05:18:00,thn,3.90
2023-04-22T05:19:00,thn,3.96
2023-04-22T05:20:00,thn,3.82
2023-04-22T05:21:00,thn,4.03
2023-04-22T05:22:00,thn,4.04
2023-04-22T05:23:00,thn,3.83
2023-04-22T05:24:00,thn,3.76
2023-04-22T05:25:00,thn,3.78
2023-04-22T05:26:00,thn,3.94
2023-04-22T05:27:00,thn,3.73
2023-04-22T05:28:00,thn,3.75
2023-04-22T05:29:00,thn,3.75
2023-04-22T05:30:00,thn,3.79
2023-04-22T05:31:00,thn,3.78
2023-04-22T05:32:00,thn,3.79
2023-04-22T05:33:00,thn,3.60
2023-04-22T05:34:00,thn,3.65
2023-04-22T05:35:00,thn,3.71
2023-04-22T05:36:00,thn,3.70
2023-04-22T05:37:00,thn,3.69
2023-04-22T05:38:00,thn,3.71
2023-04-22T05:39:00,thn,3.70
2023-04-22T05:40:00,thn,3.71
2023-04-22T05:41:00,thn,3.73
2023-04-22T05:42:00,thn,3.72
2023-04-22T05:43:00,thn,3.69
2023-04-22T05:44:00,thn,3.69
2023-04-22T05:45:00,thn,3.68
2023-04-22T05:46:00,thn,3.67
2023-04-22T05:47:00,thn,3.74
2023-04-22T05:48:00,thn,3.83
2023-04-22T05:49:00,thn,3.82
2023-04-22T05:50:00,thn,3.72
2023-04-22T05:51:00,thn,3.78
2023-04-22T05:52:00,thn,3.77
2023-04-22T05:53:00,thn,3.80
2023-04-22T05:54:00,thn,3.78
2023-04-22T05:55:00,thn,3.77
2023-04-22T05:56:00,thn,3.83
2023-04-22T05:57:00,thn,3.77
2023-04-22T05:58:00,thn,3.77
2023-04-22T05:59:00,thn,3.78
2023-04-22T06:00:00,thn,3.79
2023-04-22T06:01:00,thn,4.00
2023-04-22T06:02:00,thn,3.79
2023-04-22T06:03:00,thn,3.78
2023-04-22T06:04:00,thn,3.92
2023-04-22T06:05:00,thn,3.87
2023-04-22T06:06:00,thn,3.86
2023-04-22T06:07:00,thn,3.79
2023-04-22T06:08:00,thn,3.84
2023-04-22T06:09:00,thn,3.83
2023-04-22T06:10:00,thn,3.67
2023-04-22T06:11:00,thn,3.89
2023-04-22T06:12:00,thn,3.89
2023-04-22T06:13:00,thn,3.86
2023-04-22T06:14:00,thn,3.77
2023-04-22T06:15:00,thn,3.74
2023-04-22T06:16:00,thn,3.79
2023-04-22T06:17:00,thn,3.56
2023-04-22T06:18:00,thn,3.61
2023-04-22T06:19:00,thn,3.61
2023-04-22T06:20:00,thn,3.59
2023-04-22T06:21:00,thn,3.66
2023-04-22T06:22:00,thn,3.65
2023-04-22T06:23:00,thn,3.71
2023-04-22T06:24:00,thn,3.64
2023-04-22T06:25:00,thn,3.64
2023-04-22T06:26:00,thn,3.59
2023-04-22T06:27:00,thn,3.59
2023-04-22T06:28:00,thn,3.73
2023-04-22T06:29:00,thn,3.66
2023-04-22T06:30:00,thn,3.80
2023-04-22T06:31:00,thn,3.80
2023-04-22T06:32:00,thn,3.79
2023-04-22T06:33:00,thn,3.93
2023-04-22T06:34:00,thn,3.93
2023-04-22T06:35:00,thn,3.93
2023-04-22T06:36:00,thn,3.90
2023-04-22T06:37:00,thn,3.97
2023-04-22T06:38:00,thn,3.99
2023-04-22T06:39:00,thn,4.06
2023-04-22T06:40:00,thn,4.10
2023-04-22T06:41:00,thn,4.03
2023-04-22T06:42:00,thn,4.19
2023-04-22T06:43:00,thn,4.00
2023-04-22T06:44:00,thn,3.99
2023-04-22T06:45:00,thn,3.94
2023-04-22T06:46:00,thn,3.94
2023-04-22T06:47:00,thn,3.79
2023-04-22T06:48:00,thn,3.79
2023-04-22T06:49:00,thn,3.79
2023-04-22T06:50:00,thn,3.78
2023-04-22T06:51:00,thn,3.78
2023-04-22T06:52:00,thn,3.77
2023-04-22T06:53:00,thn,3.77
2023-04-22T06:54:00,thn,3.85
2023-04-22T06:55:00,thn,3.91
2023-04-22T06:56:00,thn,3.91
2023-04-22T06:57:00,thn,3.90
2023-04-22T06:58:00,thn,4.39
2023-04-22T06:59:00,thn,3.86
2023-04-22T07:00:00,thn,3.86
2023-04-22T07:01:00,thn,3.82
2023-04-22T07:02:00,thn,3.71
2023-04-22T07:03:00,thn,3.70
2023-04-22T07:04:00,thn,3.71
2023-04-22T07:05:00,thn,3.76
2023-04-22T07:06:00,thn,3.75
2023-04-22T07:07:00,thn,3.66
2023-04-22T07:08:00,thn,3.66
2023-04-22T07:09:00,thn,3.66
2023-04-22T07:10:00,thn,3.59
2023-04-22T07:11:00,thn,3.67
2023-04-22T07:12:00,thn,3.72
2023-04-22T07:13:00,thn,3.72
2023-04-22T07:14:00,thn,3.71
2023-04-22T07:15:00,thn,3.64
2023-04-22T07:16:00,thn,3.65
2023-04-22T07:17:00,thn,3.59
2023-04-22T07:18:00,thn,3.60
2023-04-22T07:19:00,thn,3.61
2023-04-22T07:20:00,thn,3.59
2023-04-22T07:21:00,thn,3.75
2023-04-22T07:22:00,thn,3.94
2023-04-22T07:23:00,thn,3.94
2023-04-22T07:24:00,thn,3.72
2023-04-22T07:25:00,thn,3.97
2023-04-22T07:26:00,thn,3.75
2023-04-22T07:27:00,thn,3.75
2023-04-22T07:28:00,thn,3.90
2023-04-22T07:29:00,thn,3.87
2023-04-22T07:30:00,thn,3.82
2023-04-22T07:31:00,thn,3.81
2023-04-22T07:32:00,thn,3.81
2023-04-22T07:33:00,thn,3.78
2023-04-22T07:34:00,thn,3.73
2023-04-22T07:35:00,thn,3.77
2023-04-22T07:36:00,thn,3.77
2023-04-22T07:37:00,thn,3.76
2023-04-22T07:38:00,thn,3.79
2023-04-22T07:39:00,thn,3.76
2023-04-22T07:40:00,thn,3.76
2023-04-22T07:41:00,thn,3.77
2023-04-22T07:42:00,thn,3.77
2023-04-22T07:43:00,thn,3.72
2023-04-22T07:44:00,thn,3.77
2023-04-22T07:45:00,thn,3.84
2023-04-22T07:46:00,thn,3.82
2023-04-22T07:47:00,thn,3.81
2023-04-22T07:48:00,thn,3.81
2023-04-22T07:49:00,thn,3.73
2023-04-22T07:50:00,thn,3.61
2023-04-22T07:51:00,thn,3.74
2023-04-22T07:52:00,thn,3.69
2023-04-22T07:53:00,thn,3.68
2023-04-22T07:54:00,thn,3.67
2023-04-22T07:55:00,thn,3.63
2023-04-22T07:56:00,thn,3.63
2023-04-22T07:57:00,thn,3.65
2023-04-22T07:58:00,thn,3.64
2023-04-22T07:59:00,thn,3.63
2023-04-22T08:00:00,thn,3.69
2023-04-22T08:01:00,thn,3.69
2023-04-22T08:02:00,thn,3.75
2023-04-22T08:03:00,thn,3.94
2023-04-22T08:04:00,thn,3.81
2023-04-22T08:05:00,thn,3.78
2023-04-22T08:06:00,thn,3.77
2023-04-22T08:07:00,thn,3.74
2023-04-22T08:08:00,thn,3.74
2023-04-22T08:09:00,thn,3.73
2023-04-22T08:10:00,thn,3.62
2023-04-22T08:11:00,thn,3.61
2023-04-22T08:12:00,thn,3.52
2023-04-22T08:13:00,thn,3.52
2023-04-22T08:14:00,thn,3.53
2023-04-22T08:15:00,thn,3.52
2023-04-22T08:16:00,thn,3.59
2023-04-22T08:17:00,thn,3.58
2023-04-22T08:18:00,thn,3.64
2023-04-22T08:19:00,thn,3.79
2023-04-22T08:20:00,thn,3.78
2023-04-22T08:21:00,thn,3.72
2023-04-22T08:22:00,thn,3.68
2023-04-22T08:23:00,thn,3.61
2023-04-22T08:24:00,thn,3.61
2023-04-22T08:25:00,thn,3.61
2023-04-22T08:26:00,thn,4.08
2023-04-22T08:27:00,thn,4.08
2023-04-22T08:28:00,thn,4.06
2023-04-22T08:29:00,thn,4.07
2023-04-22T08:30:00,thn,4.05
2023-04-22T08:31:00,thn,4.05
2023-04-22T08:32:00,thn,4.05
2023-04-22T08:33:00,thn,4.10
2023-04-22T08:34:00,thn,4.06
2023-04-22T08:35:00,thn,4.01
2023-04-22T08:36:00,thn,3.71
2023-04-22T08:37:00,thn,3.72
2023-04-22T08:38:00,thn,3.67
2023-04-22T08:39:00,thn,3.65
2023-04-22T08:40:00,thn,3.54
2023-04-22T08:41:00,thn,3.53
2023-04-22T08:42:00,thn,3.64
2023-04-22T08:43:00,thn,3.86
2023-04-22T08:44:00,thn,3.63
2023-04-22T08:45:00,thn,3.63
2023-04-22T08:46:00,thn,3.63
2023-04-22T08:47:00,thn,3.85
2023-04-22T08:48:00,thn,3.77
2023-04-22T08:49:00,thn,3.76
2023-04-22T08:50:00,thn,3.82
2023-04-22T08:51:00,thn,3.80
2023-04-22T08:52:00,thn,3.81
2023-04-22T08:53:00,thn,4.20
2023-04-22T08:54:00,thn,4.20
2023-04-22T08:55:00,thn,3.98
2023-04-22T08:56:00,thn,3.97
2023-04-22T08:57:00,thn,3.89
2023-04-22T08:58:00,thn,3.86
2023-04-22T08:59:00,thn,3.86
2023-04-22T09:00:00,thn,3.89
2023-04-22T09:01:00,thn,3.92
2023-04-22T09:02:00,thn,3.90
2023-04-22T09:03:00,thn,3.88
2023-04-22T09:04:00,thn,3.94
2023-04-22T09:05:00,thn,3.93
2023-04-22T09:06:00,thn,3.93
2023-04-22T09:07:00,thn,3.99
2023-04-22T09:08:00,thn,3.98
2023-04-22T09:09:00,thn,3.93
2023-04-22T09:10:00,thn,3.97
2023-04-22T09:11:00,thn,4.05
2023-04-22T09:12:00,thn,4.14
2023-04-22T09:13:00,thn,4.19
2023-04-22T09:14:00,thn,4.12
2023-04-22T09:15:00,thn,4.00
2023-04-22T09:16:00,thn,3.98
2023-04-22T09:17:00,thn,3.99
2023-04-22T09:18:00,thn,3.99
2023-04-22T09:19:00,thn,3.95
2023-04-22T09:20:00,thn,4.48
2023-04-22T09:21:00,thn,4.57
2023-04-22T09:22:00,thn,4.49
2023-04-22T09:23:00,thn,4.48
2023-04-22T09:24:00,thn,5.16
2023-04-22T09:25:00,thn,4.99
2023-04-22T09:26:00,thn,5.02
2023-04-22T09:27:00,thn,6.12
2023-04-22T09:28:00,thn,5.77
2023-04-22T09:29:00,thn,4.07
2023-04-22T09:30:00,thn,3.98
2023-04-22T09:31:00,thn,3.83
2023-04-22T09:32:00,thn,4.20
2023-04-22T09:33:00,thn,4.88
2023-04-22T09:34:00,thn,3.66
2023-04-22T09:35:00,thn,3.85
2023-04-22T09:36:00,thn,3.74
2023-04-22T09:37:00,thn,3.68
2023-04-22T09:38:00,thn,3.66
2023-04-22T09:39:00,thn,3.66
2023-04-22T09:40:00,thn,3.61
2023-04-22T09:41:00,thn,3.61
2023-04-22T09:42:00,thn,3.60
2023-04-22T09:43:00,thn,3.59
2023-04-22T09:44:00,thn,3.58
2023-04-22T09:45:00,thn,3.70
2023-04-22T09:46:00,thn,3.68
2023-04-22T09:47:00,thn,3.71
2023-04-22T09:48:00,thn,3.78
2023-04-22T09:49:00,thn,3.58
2023-04-22T09:50:00,thn,3.54
2023-04-22T09:51:00,thn,3.50
2023-04-22T09:52:00,thn,3.61
2023-04-22T09:53:00,thn,3.60
2023-04-22T09:54:00,thn,3.55
2023-04-22T09:55:00,thn,3.56
2023-04-22T09:56:00,thn,3.53
2023-04-22T09:57:00,thn,3.57
2023-04-22T09:58:00,thn,3.56
2023-04-22T09:59:00,thn,3.54
2023-04-22T10:00:00,thn,3.61
2023-04-22T10:01:00,thn,3.57
2023-04-22T10:02:00,thn,3.56
2023-04-22T10:03:00,thn,3.49
2023-04-22T10:04:00,thn,3.50
2023-04-22T10:05:00,thn,3.70
2023-04-22T10:06:00,thn,3.76
2023-04-22T10:07:00,thn,3.58
2023-04-22T10:08:00,thn,3.67
2023-04-22T10:09:00,thn,3.65
2023-04-22T10:10:00,thn,3.64
2023-04-22T10:11:00,thn,3.64
2023-04-22T10:12:00,thn,4.19
2023-04-22T10:13:00,thn,3.63
2023-04-22T10:14:00,thn,3.57
2023-04-22T10:15:00,thn,3.64
2023-04-22T10:16:00,thn,3.71
2023-04-22T10:17:00,thn,3.72
2023-04-22T10:18:00,thn,5.17
2023-04-22T10:19:00,thn,3.76
2023-04-22T10:20:00,thn,3.77
2023-04-22T10:21:00,thn,3.74
2023-04-22T10:22:00,thn,3.74
2023-04-22T10:23:00,thn,3.88
2023-04-22T10:24:00,thn,3.95
2023-04-22T10:25:00,thn,3.94
2023-04-22T10:26:00,thn,3.92
2023-04-22T10:27:00,thn,3.89
2023-04-22T10:28:00,thn,3.83
2023-04-22T10:29:00,thn,3.84
2023-04-22T10:30:00,thn,3.91
2023-04-22T10:31:00,thn,3.79
2023-04-22T10:32:00,thn,3.87
2023-04-22T10:33:00,thn,3.93
2023-04-22T10:34:00,thn,3.94
2023-04-22T10:35:00,thn,3.93
2023-04-22T10:36:00,thn,3.89
2023-04-22T10:37:00,thn,3.94
2023-04-22T10:38:00,thn,3.89
2023-04-22T10:39:00,thn,3.84
2023-04-22T10:40:00,thn,3.86
2023-04-22T10:41:00,thn,3.91
2023-04-22T10:42:00,thn,3.90
2023-04-22T10:43:00,thn,3.90
2023-04-22T10:44:00,thn,3.89
2023-04-22T10:45:00,thn,4.00
2023-04-22T10:46:00,thn,3.95
2023-04-22T10:47:00,thn,3.76
2023-04-22T10:48:00,thn,3.80
2023-04-22T10:49:00,thn,3.79
2023-04-22T10:50:00,thn,3.80
2023-04-22T10:51:00,thn,3.68
2023-04-22T10:52:00,thn,3.59
2023-04-22T10:53:00,thn,3.59
2023-04-22T10:54:00,thn,3.64
2023-04-22T10:55:00,thn,3.87
2023-04-22T10:56:00,thn,3.84
2023-04-22T10:57:00,thn,3.84
2023-04-22T10:58:00,thn,3.81
2023-04-22T10:59:00,thn,3.80
2023-04-22T11:00:00,thn,3.77
2023-04-22T11:01:00,thn,3.75
2023-04-22T11:02:00,thn,3.74
2023-04-22T11:03:00,thn,5.33
2023-04-22T11:04:00,thn,5.37
2023-04-22T11:05:00,thn,4.88
2023-04-22T11:06:00,thn,4.89
2023-04-22T11:07:00,thn,4.88
2023-04-22T11:08:00,thn,4.82
2023-04-22T11:09:00,thn,5.04
2023-04-22T11:10:00,thn,3.77
2023-04-22T11:11:00,thn,3.80
2023-04-22T11:12:00,thn,3.83
2023-04-22T11:13:00,thn,3.80
2023-04-22T11:14:00,thn,5.34
2023-04-22T11:15:00,thn,6.37
2023-04-22T11:16:00,thn,5.34
2023-04-22T11:17:00,thn,3.83
2023-04-22T11:18:00,thn,3.77
2023-04-22T11:19:00,thn,3.82
2023-04-22T11:20:00,thn,3.85
2023-04-22T11:21:00,thn,3.93
2023-04-22T11:22:00,thn,3.94
2023-04-22T11:23:00,thn,3.90
2023-04-22T11:24:00,thn,3.91
2023-04-22T11:25:00,thn,3.79
2023-04-22T11:26:00,thn,4.09
2023-04-22T11:27:00,thn,4.06
2023-04-22T11:28:00,thn,3.90
2023-04-22T11:29:00,thn,3.83
2023-04-22T11:30:00,thn,3.81
2023-04-22T11:31:00,thn,3.80
2023-04-22T11:32:00,thn,3.79
2023-04-22T11:33:00,thn,3.76
2023-04-22T11:34:00,thn,3.77
2023-04-22T11:35:00,thn,4.98
2023-04-22T11:36:00,thn,9.36
2023-04-22T11:37:00,thn,9.43
2023-04-22T11:38:00,thn,9.43
2023-04-22T11:39:00,thn,8.72
2023-04-22T11:40:00,thn,3.98
2023-04-22T11:41:00,thn,8.32
2023-04-22T11:42:00,thn,4.35
2023-04-22T11:43:00,thn,8.38
2023-04-22T11:44:00,thn,4.21
2023-04-22T11:45:00,thn,11.29
2023-04-22T11:46:00,thn,5.88
2023-04-22T11:47:00,thn,10.02
2023-04-22T11:48:00,thn,9.39
2023-04-22T11:49:00,thn,7.77
2023-04-22T11:50:00,thn,11.88
2023-04-22T11:51:00,thn,6.44
2023-04-22T11:52:00,thn,10.05
2023-04-22T11:53:00,thn,9.42
2023-04-22T11:54:00,thn,13.50
2023-04-22T11:55:00,thn,8.06
2023-04-22T11:56:00,thn,11.65
2023-04-22T11:57:00,thn,5.76
2023-04-22T11:58:00,thn,11.72
2023-04-22T11:59:00,thn,6.93
2023-04-22T12:00:00,thn,8.74
2023-04-22T12:01:00,thn,4.92
2023-04-22T12:02:00,thn,8.90
2023-04-22T12:03:00,thn,4.92
2023-04-22T12:04:00,thn,10.72
2023-04-22T12:05:00,thn,5.13
2023-04-22T12:06:00,thn,9.16
2023-04-22T12:07:00,thn,5.25
2023-04-22T12:08:00,thn,8.72
2023-04-22T12:09:00,thn,8.70
2023-04-22T12:10:00,thn,8.78
2023-04-22T12:11:00,thn,9.56
2023-04-22T12:12:00,thn,9.62
2023-04-22T12:13:00,thn,9.36
2023-04-22T12:14:00,thn,9.21
2023-04-22T12:15:00,thn,9.14
2023-04-22T12:16:00,thn,9.22
2023-04-22T12:17:00,thn,9.00
2023-04-22T12:18:00,thn,8.72
2023-04-22T12:19:00,thn,8.80
2023-04-22T12:20:00,thn,9.35
2023-04-22T12:21:00,thn,9.50
2023-04-22T12:22:00,thn,9.53
2023-04-22T12:23:00,thn,9.44
2023-04-22T12:24:00,thn,9.47
2023-04-22T12:25:00,thn,9.57
2023-04-22T12:26:00,thn,5.58
2023-04-22T12:27:00,thn,5.38
2023-04-22T12:28:00,thn,5.11
2023-04-22T12:29:00,thn,9.51
2023-04-22T12:30:00,thn,9.38
2023-04-22T12:31:00,thn,5.42
2023-04-22T12:32:00,thn,5.23
2023-04-22T12:33:00,thn,5.18
2023-04-22T12:34:00,thn,9.29
2023-04-22T12:35:00,thn,5.32
2023-04-22T12:36:00,thn,5.32
2023-04-22T12:37:00,thn,9.42
2023-04-22T12:38:00,thn,9.25
2023-04-22T12:39:00,thn,5.13
2023-04-22T12:40:00,thn,5.24
2023-04-22T12:41:00,thn,9.20
2023-04-22T12:42:00,thn,9.30
2023-04-22T12:43:00,thn,5.37
2023-04-22T12:44:00,thn,5.35
2023-04-22T12:45:00,thn,9.55
2023-04-22T12:46:00,thn,9.64
2023-04-22T12:47:00,thn,5.52
2023-04-22T12:48:00,thn,5.52
2023-04-22T12:49:00,thn,5.49
2023-04-22T12:50:00,thn,8.44
2023-04-22T12:51:00,thn,8.71
2023-04-22T12:52:00,thn,4.71
2023-04-22T12:53:00,thn,4.34
2023-04-22T12:54:00,thn,8.80
2023-04-22T12:55:00,thn,8.88
2023-04-22T12:56:00,thn,4.50
2023-04-22T12:57:00,thn,4.52
2023-04-22T12:58:00,thn,8.58
2023-04-22T12:59:00,thn,8.55
2023-04-22T13:00:00,thn,5.16
2023-04-22T13:01:00,thn,5.12
2023-04-22T13:02:00,thn,5.01
2023-04-22T13:03:00,thn,10.03
2023-04-22T13:04:00,thn,10.10
2023-04-22T13:05:00,thn,4.97
2023-04-22T13:06:00,thn,5.03
2023-04-22T13:07:00,thn,9.07
2023-04-22T13:08:00,thn,4.99
2023-04-22T13:09:00,thn,4.68
2023-04-22T13:10:00,thn,3.97
2023-04-22T13:11:00,thn,3.97
2023-04-22T13:12:00,thn,3.93
2023-04-22T13:13:00,thn,3.98
2023-04-22T13:14:00,thn,3.97
2023-04-22T13:15:00,thn,3.93
2023-04-22T13:16:00,thn,4.03
2023-04-22T13:17:00,thn,4.02
2023-04-22T13:18:00,thn,3.97
2023-04-22T13:19:00,thn,4.00
2023-04-22T13:20:00,thn,4.02
2023-04-22T13:21:00,thn,4.05
2023-04-22T13:22:00,thn,4.22
2023-04-22T13:23:00,thn,5.05
2023-04-22T13:24:00,thn,5.02
2023-04-22T13:25:00,thn,5.00
2023-04-22T13:26:00,thn,5.01
2023-04-22T13:27:00,thn,4.98
2023-04-22T13:28:00,thn,5.15
2023-04-22T13:29:00,thn,5.13
2023-04-22T13:30:00,thn,9.34
2023-04-22T13:31:00,thn,9.34
2023-04-22T13:32:00,thn,9.32
2023-04-22T13:33:00,thn,9.50
2023-04-22T13:34:00,thn,9.45
2023-04-22T13:35:00,thn,9.70
2023-04-22T13:36:00,thn,9.68
2023-04-22T13:37:00,thn,9.63
2023-04-22T13:38:00,thn,9.56
2023-04-22T13:39:00,thn,9.64
2023-04-22T13:40:00,thn,9.63
2023-04-22T13:41:00,thn,9.79
2023-04-22T13:42:00,thn,10.64
2023-04-22T13:43:00,thn,12.53
2023-04-22T13:44:00,thn,12.47